Regional Weather Roundup
Issued by NWS

Home | Current Version | Previous Version | Text Only | Print | Product List | Glossary On
Versions: 1 2 3 4 5 6 7 8 9 10 11 12 13 14 15 16 17 18 19 20 21 22 23 24 25 26 27 28 29 30 31 32 33 34 35 36 37 38 39 40 41 42 43 44 45 46 47 48 49 50
000
ASUS44 KLUB 071001
RWRTX
WEST TEXAS WEATHER ROUNDUP
NATIONAL WEATHER SERVICE LUBBOCK TX
400 AM CST SUN FEB 07 2016

NOTE: "FAIR" INDICATES FEW OR NO CLOUDS BELOW 12,000 FEET WITH NO
SIGNIFICANT WEATHER AND/OR OBSTRUCTIONS TO VISIBILITY.

TXZ004-006>008-010-012-014-016-OKZ002-071100-
TEXAS PANHANDLE/OKLAHOMA PANHANDLE

CITY           SKY/WX    TMP DP  RH WIND       PRES   REMARKS
AMARILLO       CLOUDY    25  11  55 SW6       30.10F WCI  18
BORGER         CLOUDY    31  13  47 W6        30.10F WCI  25
CANADIAN       CLOUDY    30  18  62 CALM      30.10F
DALHART        CLOUDY    29  14  53 NW10      30.11S WCI  20
DUMAS          CLEAR     31  13  48 W9        30.09F WCI  22
GUYMON         CLOUDY    29  15  56 N13G21    30.11R WCI  19
$$

TXZ026-029-035-045-048-071100-
SOUTHERN PANHANDLE/SOUTH PLAINS/ROLLING PLAINS

CITY           SKY/WX    TMP DP  RH WIND       PRES   REMARKS
CHILDRESS      CLOUDY    29  17  61 SW8       30.12F WCI  21
LUBBOCK        CLOUDY    35  11  36 W13       30.11F WCI  26
SNYDER           N/A     33  19  56 S10       30.16F WCI  24
$$

TXZ052-054-060>062-072-078-127-140-154-169-071100-
PERMIAN BASIN/CONCHO VALLEY/BIG COUNTRY/EDWARDS PLATEAU

CITY           SKY/WX    TMP DP  RH WIND       PRES   REMARKS
ABILENE        CLEAR     41  17  38 S10       30.19F
BROWNWOOD      CLOUDY    27  23  86 SE3       30.25F
JUNCTION       CLOUDY    23  17  78 W5        30.26F WCI  17
MIDLAND        CLOUDY    39  15  37 S10       30.17F WCI  32
ODESSA         CLOUDY    37  15  40 S7        30.18F WCI  32
SAN ANGELO     CLOUDY    32  19  58 SW6       30.22F WCI  26
WINK           CLOUDY    27  15  61 W3        30.18F
$$

TXZ055-058-074-075-080-082-071100-
FAR WEST/SOUTHWEST MOUNTAINS/TRANS PECOS

CITY           SKY/WX    TMP DP  RH WIND       PRES   REMARKS
DRYDEN           N/A     36  13  38 N9        30.22F WCI  29
EL PASO        MOCLDY    30   7  37 CALM      30.29F
FORT STOCKTON  PTCLDY    45  12  26 SW12      30.21F
GUADALUPE PASS CLOUDY    35   2  24 SW24G30   30.24F WCI  23
MARFA          CLOUDY    25   7  46 W3        30.30F
$$

TXZ014-016-019-021>030-083-071100
TEXAS TECH WEST TEXAS MESONET/TEXAS PANHANDLE/NORTHERN SOUTH PLAINS

CITY           SKY/WX    TMP DP  RH WIND       PRES   REMARKS
ABERNATHY 5ENE   N/A     29  13  49 W6        30.12F WCI  23
AMARILLO 9NNE    N/A     24  12  60 S3        30.11S
AMARILLO 7SSE    N/A     23  10  59 W7        30.12R WCI  14
BOOTLEG 11WNW    N/A     33  15  47 NW12      30.13F WCI  24
CANADIAN 6E      N/A     35  15  44 W3        30.08F
CLARENDON 2WSW   N/A     34  14  44 S10       30.09F WCI  26
CLAUDE 12SW      N/A     33   9  36 W5        30.09F WCI  29
$$

TXZ033>036-039>041-045>048-071100
TEXAS TECH WEST TEXAS MESONET/SOUTH PLAINS

CITY           SKY/WX    TMP DP  RH WIND       PRES   REMARKS
AIKEN 3WSW       N/A     24  12  62 SW6       30.13F WCI  16
ANDREWS 2NE      N/A     35  13  39 SW8       30.17F WCI  29
ANTON 6SSW       N/A     32  11  42 W9        30.12F WCI  24
BROWNFIELD 2S    N/A     29  10  45 SW10      30.15S WCI  19
$$

TXZ031-032-036>038-042>044-071100-
TEXAS TECH WEST TEXAS MESONET/ROLLING PLAINS

CITY           SKY/WX    TMP DP  RH WIND       PRES   REMARKS
ASPERMONT 3NE    N/A     40  16  38 S12       30.14F WCI  32
LK A HENRY 1NW   N/A     41  16  35 SW13      30.14F
$$

TXZ052-054-060>062-072-078-127-140-154-169-071100-
TEXAS TECH WEST TEXAS MESONET/PERMIAN BASIN/
CONCHO VALLEY/BIG COUNTRY/EDWARDS PLATEAU

CITY           SKY/WX    TMP DP  RH WIND       PRES   REMARKS
SAN ANGELO 7NW   N/A     27  15  61 CALM      30.22F
$$

TXZ055-058-074-075-080-082-071100-
TEXAS TECH WEST TEXAS MESONET/FAR WEST/SOUTHWEST MOUNTAINS/TRANS PECOS

CITY           SKY/WX    TMP DP  RH WIND       PRES   REMARKS
$$



USA.gov is the U.S. government's official web portal to all federal, state and local government web resources and services.